La Corsa di Miguel
Classifica best Uomini al 2017

Roma - Farnesina | 10,000 Km



Classifica best Donne al 2017 | La gara negli anni

Classifica composta da 584 atleti.

N. Pos.
in %
Tot.
Ediz.
Foto Runner Cat. Tempo min/
Km
Edizione
1 0% 2 Argentieri Giovanni SM 00:32:52 3:17 2017
2 0% 1 Moccia Andrea SM50 00:33:42 3:22 2012
3 1% 1 Simongini Carlo SM50 00:34:19 3:25 2015
4 1% 1 Donati Simone SM35 00:34:43 3:28 2017
5 1% 4 Geraldini Piergianni SM35 00:34:47 3:28 2017
6 1% 1 Tambone Augusto SM40 00:35:01 3:30 2002
7 1% 4 Murolo Marco SM40 00:35:05 3:30 2017
8 1% 2 Lutri Stefano SM40 00:35:05 3:30 2002
9 2% 4 Arrigoni Manuel SM40 00:35:15 3:31 2015
10 2% 2 Tramontano Gennaro SM35 00:35:24 3:32 2015
11 2% 4 Brilli Fabrizio SM35 00:35:36 3:33 2015
12 2% 4 Mazzoli Angelo SM40 00:35:36 3:33 2012
13 2% 2 Denguir Mourad SM45 00:35:37 3:33 2012
14 2% 3 Cardellini Nicola SM35 00:35:40 3:34 2015
15 3% 4 Del Negro Roberto SM40 00:35:42 3:34 2017
16 3% 1 Mittoni Alberto SM45 00:36:01 3:36 2017
17 3% 1 Dina Sergio SM55 00:36:24 3:38 2017
18 3% 1 Cavassini Enzo SM45 00:36:26 3:38 2002
19 3% 1 Capannolo Valerio SM 00:36:29 3:38 2012
20 3% 4 Nigri Umberto SM45 00:36:46 3:40 2017
21 4% 2 Caponnetto Dario SM45 00:36:51 3:41 2015
22 4% 1 Oronzini Alessandro SM 00:36:56 3:41 2002
23 4% 4 Farina Ignazio Stefano SM50 00:37:04 3:42 2015
24 4% 2 Zirilli Edoardo SM35 00:37:05 3:42 2015
25 4% 1 Perna Dario SM45 00:37:10 3:43 2015
26 4% 3 Cocciolo Andrea SM40 00:37:15 3:43 2015
27 5% 1 Cocchia Domenico Alessandro SM40 00:37:18 3:43 2017
28 5% 3 Di Liberto Lorenzo SM45 00:37:21 3:44 2015
29 5% 1 Dos Santos Galvao Mario Rogerio SM 00:37:28 3:44 2012
30 5% 4 Giannini Daniele SM45 00:37:36 3:45 2015
31 5% 1 De Pasquali Roberto SM40 00:37:37 3:45 2017
32 5% 2 Grandin Diego SM55 00:37:46 3:46 2002
33 6% 3 Cina Stefano SM40 00:37:51 3:47 2012
34 6% 2 Marsili Fausto SM50 00:37:56 3:47 2012
35 6% 2 Catalano Claudio SM50 00:38:01 3:48 2014
36 6% 1 D'amico - 72 Roberto SM45 00:38:01 3:48 2017
37 6% 3 Pierantozzi Fabio SM40 00:38:19 3:49 2015
38 7% 1 Ronci Aldo SM 00:38:22 3:50 2002
39 7% 2 Taddei Giancarlo SM45 00:38:23 3:50 2002
40 7% 3 Del Borrello Vincenzo SM45 00:38:26 3:50 2015
41 7% 1 Salomone Paolo SM40 00:38:27 3:50 2002
42 7% 5 Cacchioni Antonio SM35 00:38:31 3:51 2002
43 7% 2 Ferrante Francesco SM35 00:38:34 3:51 2017
44 8% 1 Gigli Cristian SM40 00:38:41 3:52 2014
45 8% 3 Pacciani Stefano SM45 00:38:41 3:52 2015
46 8% 4 Salera Marco SM45 00:38:45 3:52 2015
47 8% 1 Stoia Michele SM 00:38:46 3:52 2002
48 8% 1 Piccardi Paolo SM35 00:38:47 3:52 2017
49 8% 4 Leoncini Claudio SM45 00:38:47 3:52 2015
50 9% 2 Latini Roberto SM40 00:38:49 3:52 2012
51 9% 3 Litta Francesco SM40 00:38:54 3:53 2017
52 9% 2 Zingariello Gerardo SM45 00:39:00 3:54 2015
53 9% 3 Cacciani Andrea SM40 00:39:00 3:54 2015
54 9% 3 De Iulis Stefano SM50 00:39:05 3:54 2017
55 9% 1 Polverino Vittorio SM35 00:39:10 3:55 2015
56 10% 1 Mascaro Antonio SM50 00:39:30 3:57 2017
57 10% 1 Alessandrini Marco SM40 00:39:35 3:57 2002
58 10% 1 Manzi Fabio SM40 00:39:37 3:57 2012
59 10% 1 Puccio Luigi SM40 00:39:40 3:58 2015
60 10% 2 De Palo Nicola SM35 00:39:40 3:58 2015
61 10% 3 Mensi Daniele SM35 00:39:45 3:58 2012
62 11% 2 Tortoreto Luca SM40 00:39:46 3:58 2012
63 11% 1 Mansi Marco SM50 00:39:47 3:58 2012
64 11% 3 Trinca Riccardo SM35 00:39:50 3:59 2015
65 11% 1 Scarinci Tullio SM45 00:39:50 3:59 2014
66 11% 3 Huza Marius Razvan SM35 00:39:52 3:59 2017
67 11% 1 Gessi Carlo SM45 00:39:55 3:59 2012
68 12% 3 Vella Victor SM60 00:39:56 3:59 2014
69 12% 1 Silvioli Daniele SM50 00:39:58 3:59 2014
70 12% 1 Battista Gianluca SM45 00:40:02 4:00 2017
71 12% 3 Giovanale Luigi SM50 00:40:03 4:00 2015
72 12% 2 Localzo Marco SM50 00:40:04 4:00 2017
73 12% 4 Fiore Paolo SM50 00:40:07 4:00 2015
74 13% 3 Formai Riccardo SM45 00:40:15 4:01 2017
75 13% 2 Biscotti Alessio SM35 00:40:18 4:01 2012
76 13% 3 Mazzei Marco SM 00:40:23 4:02 2014
77 13% 1 Marini Fabrizio SM40 00:40:25 4:02 2012
78 13% 5 Castellana Leone SM60 00:40:30 4:03 2015
79 14% 1 Casinelli Antonio SM45 00:40:32 4:03 2012
80 14% 1 Martolini Alberto SM35 00:40:34 4:03 2012
81 14% 1 Musto Angelo Raffaele SM35 00:40:35 4:03 2002
82 14% 3 Ferri Lorenzo SM45 00:40:37 4:03 2017
83 14% 1 Scultz Gualtiero SM55 00:40:37 4:03 2017
84 14% 2 Arigoni Alessandro SM40 00:40:40 4:04 2012
85 15% 3 Del Gaudio Ennio SM50 00:40:42 4:04 2012
86 15% 2 Zanzot Paolo SM40 00:40:42 4:04 2012
87 15% 3 Vetrano Alessio SM45 00:40:45 4:04 2015
88 15% 1 Abatini Silvano SM40 00:40:45 4:04 2002
89 15% 1 Gargani Davide Leopoldo SM50 00:40:45 4:04 2012
90 15% 2 Garzia Giorgio SM40 00:40:45 4:04 2015
91 16% 1 Fusco Elio SM40 00:40:46 4:04 2017
92 16% 1 Biscotti Alessandro SM35 00:40:51 4:05 2012
93 16% 1 Anguillesi Mauro SM45 00:40:53 4:05 2002
94 16% 1 Baldelli Ermanno SM40 00:40:54 4:05 2002
95 16% 1 Filippi Bruno SM45 00:40:58 4:05 2002
96 16% 1 Giannuzzi Renato SM35 00:41:01 4:06 2012
97 17% 2 Pascali Maurizio SM40 00:41:04 4:06 2012
98 17% 2 Renzulli Raffaele SM35 00:41:09 4:06 2014
99 17% 3 D'Attorre Alfredo SM35 00:41:10 4:07 2012
100 17% 1 Fedeli Roberto SM45 00:41:11 4:07 2002
101 17% 1 Di Carlo Amedeo SM35 00:41:12 4:07 2012
102 17% 3 Faranda Paolo SM40 00:41:16 4:07 2015
103 18% 2 Blini Francesco SM40 00:41:17 4:07 2012
104 18% 2 Ungaro Andrea Patrick SM45 00:41:31 4:09 2014
105 18% 2 Saltari Lorenzo SM35 00:41:34 4:09 2012
106 18% 2 Giambra Sandro SM50 00:41:34 4:09 2014
107 18% 3 Toppano Andrea SM50 00:41:39 4:09 2017
108 18% 2 Verzaschi Marco SM55 00:41:40 4:10 2014
109 19% 2 Caldo Giuliano SM45 00:41:43 4:10 2015
110 19% 1 Jorio Valerio SM50 00:41:44 4:10 2017
111 19% 4 Cignitti Marco Fabio SM45 00:41:46 4:10 2015
112 19% 4 Castellano Ferruccio SM50 00:41:46 4:10 2017
113 19% 1 Verdesca Massimo SM50 00:41:47 4:10 2012
114 20% 1 Moriconi Daniele SM 00:41:49 4:10 2012
115 20% 2 Picardi Angelo SM50 00:41:57 4:11 2015
116 20% 1 Tanzillo Raffaele SM40 00:41:58 4:11 2017
117 20% 2 Alessandroni Andrea SM 00:41:58 4:11 2014
118 20% 1 Di Massimo Antonio SM50 00:42:01 4:12 2017
119 20% 4 Galasso Paolo SM55 00:42:03 4:12 2017
120 21% 1 Russo Raffaele SM40 00:42:05 4:12 2017
121 21% 1 Salvati Gianfranco SM50 00:42:06 4:12 2015
122 21% 1 Arolchi Claudio SM50 00:42:06 4:12 2002
123 21% 3 De Santis Alessandro Vittorio SM45 00:42:07 4:12 2015
124 21% 1 Testa Luigi SM45 00:42:09 4:12 2012
125 21% 3 Adornetto Vincenzo SM45 00:42:11 4:13 2015
126 22% 1 Antonelli Fiero SM40 00:42:13 4:13 2002
127 22% 2 Benvenuto Giuseppe SM45 00:42:15 4:13 2012
128 22% 2 Di Vecchio Daniele SM45 00:42:15 4:13 2014
129 22% 4 Malandrino Enrico SM 00:42:18 4:13 2015
130 22% 1 Vennarucci Roberto SM 00:42:21 4:14 2014
131 22% 3 Cerioni Carlo SM45 00:42:23 4:14 2015
132 23% 5 Gianni Vincenzo SM50 00:42:34 4:15 2002
133 23% 1 Barocchi Paolo SM50 00:42:37 4:15 2017
134 23% 1 Cellurale Carlo SM45 00:42:39 4:15 2002
135 23% 3 Ferrante Giancarlo SM55 00:42:39 4:15 2015
136 23% 1 Toccaceli Federico SM 00:42:41 4:16 2012
137 23% 1 Polverini Andrea SM45 00:42:41 4:16 2017
138 24% 1 Mancanelli Andrea SM45 00:42:41 4:16 2012
139 24% 1 Cardellini Claudio SM60 00:42:43 4:16 2014
140 24% 1 D'amico Gianluca SM40 00:42:48 4:16 2012
141 24% 3 D'ambrosio Mario SM50 00:42:48 4:16 2012
142 24% 4 Monti Massimiliano SM50 00:42:50 4:17 2012
143 24% 3 Maurizi Massimo SM50 00:42:51 4:17 2012
144 25% 1 D'Alonzo Metallo Giulio SM35 00:42:54 4:17 2017
145 25% 1 Mancuso Prizzitano Giacomo SM40 00:42:55 4:17 2012
146 25% 1 Nardoni Andrea SM45 00:42:55 4:17 2017
147 25% 3 Spaziani Raniero SM 00:42:57 4:17 2012
148 25% 3 Scarlato Michele SM55 00:42:57 4:17 2017
149 26% 3 Pediconi Francesco Maria SM50 00:43:00 4:18 2002
150 26% 3 Tagliacozzo Sergio SM45 00:43:00 4:18 2014
151 26% 2 Bartocci Silvio SM40 00:43:03 4:18 2014
152 26% 1 Masin Osvaldo SM50 00:43:03 4:18 2002
153 26% 4 Carrozza Francesco SM45 00:43:05 4:18 2015
154 26% 1 Costa Carbonari Stefano SM40 00:43:08 4:18 2012
155 27% 2 Giammari Giorgio SM45 00:43:11 4:19 2012
156 27% 1 Filiputti Claudio SM45 00:43:17 4:19 2002
157 27% 1 Diotallevi Marco SM45 00:43:22 4:20 2017
158 27% 2 Zampetti Maurizio SM45 00:43:22 4:20 2017
159 27% 1 Di Felice Riccardo SM35 00:43:24 4:20 2014
160 27% 1 Longo Pietro Maria SM55 00:43:26 4:20 2012
161 28% 4 Nardecchia Claudio SM65 00:43:27 4:20 2017
162 28% 1 Corcos Andrea SM55 00:43:27 4:20 2015
163 28% 4 Lai Adriano SM55 00:43:32 4:21 2012
164 28% 1 Orsini Dianeo SM45 00:43:34 4:21 2012
165 28% 1 Rotondo Gian Marco SM35 00:43:37 4:21 2012
166 28% 2 Cannizzaro Marco SM55 00:43:37 4:21 2012
167 29% 2 Mastropietro Massimo SM50 00:43:39 4:21 2014
168 29% 4 Abate Fabrizio SM45 00:43:40 4:22 2015
169 29% 2 Invernizzi Gianluigi SM45 00:43:42 4:22 2017
170 29% 1 De Cicco Giuseppe SM35 00:43:44 4:22 2002
171 29% 3 Di Crecchio Renato SM50 00:43:45 4:22 2017
172 29% 2 Scialla Riccardo SM35 00:43:46 4:22 2017
173 30% 1 Moscardelli Alessandro SM40 00:43:46 4:22 2012
174 30% 1 Vincenti Marco SM50 00:43:49 4:22 2014
175 30% 1 Angiolillo Matteo SM 00:43:51 4:23 2014
176 30% 2 Billi Fabrizio SM45 00:43:51 4:23 2014
177 30% 1 Marino Pietro SM 00:43:52 4:23 2012
178 30% 1 Monaco Paolo SM40 00:43:54 4:23 2014
179 31% 2 Polidori Marziano SM45 00:43:56 4:23 2002
180 31% 1 Onofri Alberto JM 00:43:57 4:23 2014
181 31% 1 Laureti Marco SM35 00:43:59 4:23 2017
182 31% 1 Pontini Roberto SM35 00:44:02 4:24 2002
183 31% 1 Bruno Fabio SM45 00:44:09 4:24 2015
184 32% 2 Pasquini Uberto SM60 00:44:10 4:25 2002
185 32% 3 Budoni Carlo SM50 00:44:11 4:25 2015
186 32% 1 Barone Marco SM35 00:44:12 4:25 2012
187 32% 1 Marano Cristiano Maria SM 00:44:13 4:25 2002
188 32% 1 Gulisano Sebastian SM 00:44:14 4:25 2014
189 32% 1 Fraumene Paolo SM50 00:44:14 4:25 2002
190 33% 1 Simoni Italo E. SM55 00:44:16 4:25 2002
191 33% 1 Zini Diego SM45 00:44:18 4:25 2012
192 33% 2 Lungarini Marco SM45 00:44:18 4:25 2017
193 33% 1 Toscano Andrea Fortunato SM 00:44:20 4:26 2012
194 33% 2 Pizzonia Massimo SM50 00:44:21 4:26 2015
195 33% 3 Lamedica Giuseppe SM40 00:44:23 4:26 2017
196 34% 1 Dentico Emiliano SM45 00:44:26 4:26 2017
197 34% 2 Peroni Bruno SM35 00:44:27 4:26 2014
198 34% 1 Mattei Giampaolo SM45 00:44:28 4:26 2012
199 34% 3 Graziani Italo SM55 00:44:28 4:26 2014
200 34% 3 Manili Domenico SM45 00:44:31 4:27 2012
201 34% 1 Onorato Gino SM50 00:44:34 4:27 2017
202 35% 1 Silvestri Alessandro SM35 00:44:34 4:27 2012
203 35% 4 Alimonti Carlo SM55 00:44:34 4:27 2012
204 35% 2 Salvato Silvio SM35 00:44:37 4:27 2017
205 35% 3 Minnielli Lorenzo Maria SM55 00:44:39 4:27 2015
206 35% 1 Ammendola Antonio SM45 00:44:40 4:28 2017
207 35% 4 Mendolia Mauro Riccardo SM60 00:44:40 4:28 2012
208 36% 3 Pica Carlo Alberto SM50 00:44:46 4:28 2014
209 36% 1 Pacifici Benedetto SM50 00:44:46 4:28 2017
210 36% 2 Di Francesco Roberto SM40 00:44:54 4:29 2015
211 36% 1 Camboni Massimiliano SM45 00:44:55 4:29 2017
212 36% 2 Caputo Antonio SM50 00:44:59 4:29 2017
213 36% 3 Toni Fabrizio SM65 00:45:04 4:30 2012
214 37% 1 Sposato Domenico SM 00:45:06 4:30 2014
215 37% 3 Frazzini Enzo SM55 00:45:06 4:30 2014
216 37% 4 Cappadocia Vincenzo SM70 00:45:07 4:30 2017
217 37% 1 Bussani Omar SM35 00:45:11 4:31 2014
218 37% 2 Rizzo Salvatore Maria SM40 00:45:11 4:31 2015
219 38% 1 Crupi Antonino Loreto SM35 00:45:14 4:31 2012
220 38% 4 Orlandi Giuseppe SM50 00:45:15 4:31 2015
221 38% 1 Papeo Pasquale Antonio SM45 00:45:15 4:31 2014
222 38% 1 Amendola Dario SM35 00:45:15 4:31 2012
223 38% 4 Passa Corrado SM40 00:45:19 4:31 2014
224 38% 3 Caiazzi Mauro SM55 00:45:19 4:31 2012
225 39% 2 Giangrazi Christian SM35 00:45:20 4:32 2015
226 39% 1 Grottaroli Mauro SM45 00:45:23 4:32 2017
227 39% 1 Mele Fabiano SM40 00:45:23 4:32 2014
228 39% 3 Rizzardi Flavio SM45 00:45:23 4:32 2012
229 39% 1 Tekombo Dongmeza Bright Savoir SM 00:45:24 4:32 2014
230 39% 1 Longo Luigi SM55 00:45:26 4:32 2002
231 40% 1 Venerito Arcangelo SM 00:45:28 4:32 2012
232 40% 3 Ponzi Sandro SM60 00:45:29 4:32 2014
233 40% 1 Postiglione Luca SM40 00:45:31 4:33 2014
234 40% 2 Longo Tommaso SM50 00:45:35 4:33 2012
235 40% 1 Calabrese Claudio SM35 00:45:37 4:33 2015
236 40% 1 Ciocchetti Massimo SM 00:45:40 4:34 2014
237 41% 2 Trusiani Nicola SM45 00:45:41 4:34 2014
238 41% 1 Centurion Aznaran Carlos Alberto SM35 00:45:42 4:34 2015
239 41% 1 Giombini Fabio SM55 00:45:42 4:34 2015
240 41% 3 Calabresi Andrea SM40 00:45:45 4:34 2014
241 41% 1 Cucchi Federico Raoul SM 00:45:49 4:34 2012
242 41% 1 Russo Luca SM50 00:45:53 4:35 2012
243 42% 1 Totonelli Bruno SM40 00:45:53 4:35 2014
244 42% 1 Palmucci Riccardo SM50 00:45:57 4:35 2012
245 42% 1 Panelli Marco SM 00:45:57 4:35 2002
246 42% 1 Segoni Fabio SM50 00:46:04 4:36 2012
247 42% 1 Fogli Arturo SM55 00:46:08 4:36 2002
248 42% 4 Tripodi Enzo Maria SM45 00:46:10 4:37 2015
249 43% 2 Di Perna Antonio SM55 00:46:13 4:37 2017
250 43% 2 Costi Andrea SM35 00:46:13 4:37 2015
251 43% 2 Di Maio Antonio SM40 00:46:13 4:37 2015
252 43% 1 Vitulli Flaviano SM35 00:46:13 4:37 2012
253 43% 1 Saturnino Andrea SM40 00:46:14 4:37 2012
254 43% 4 Gambini Marco SM45 00:46:14 4:37 2015
255 44% 1 Morra Ciro SM50 00:46:17 4:37 2015
256 44% 2 Alessandroni Alessandro SM40 00:46:19 4:37 2015
257 44% 2 Ruschioni Ugo SM35 00:46:21 4:38 2017
258 44% 2 Campoli Giampiero SM40 00:46:21 4:38 2015
259 44% 2 Cavalli Umberto SM55 00:46:21 4:38 2017
260 45% 1 Fabi Stefano SM40 00:46:24 4:38 2014
261 45% 3 Pugliese Sergio SM55 00:46:25 4:38 2015
262 45% 3 Pasanisi Alessandro SM35 00:46:26 4:38 2014
263 45% 1 Jacoboni Emiliano SM40 00:46:29 4:38 2014
264 45% 1 Gubbiotto Gianni SM45 00:46:29 4:38 2014
265 45% 2 Penso Luca SM40 00:46:30 4:39 2015
266 46% 1 Zanolli Alessandro SM45 00:46:33 4:39 2012
267 46% 1 Pisani Stefano SM50 00:46:35 4:39 2012
268 46% 1 Liccardi Aldo SM45 00:46:37 4:39 2012
269 46% 3 Deidda Mauro SM40 00:46:39 4:39 2017
270 46% 2 Lemasle Pascal SM50 00:46:40 4:40 2017
271 46% 1 Monti Giuseppe SM50 00:46:42 4:40 2012
272 47% 5 Zuppello Valter SM65 00:46:43 4:40 2012
273 47% 3 Viglialoro Giuseppe SM45 00:46:46 4:40 2012
274 47% 1 Duma Eugenio SM45 00:46:48 4:40 2012
275 47% 2 Marchese Mario Giustino SM50 00:46:48 4:40 2015
276 47% 1 Sensati Federico SM40 00:46:53 4:41 2017
277 47% 1 Di Leo Daniele SM45 00:46:53 4:41 2017
278 48% 3 Sorrentino Vincenzo SM55 00:46:54 4:41 2015
279 48% 1 Cimarelli Massimo SM40 00:46:55 4:41 2017
280 48% 2 Cesareo Gianfranco SM55 00:46:55 4:41 2012
281 48% 1 Scuttari Mauro SM 00:46:55 4:41 2015
282 48% 1 Bitti Paolo SM40 00:46:56 4:41 2012
283 48% 4 Consiglio Luciano SM50 00:46:58 4:41 2002
284 49% 1 Giorgi Fabio SM40 00:46:58 4:41 2012
285 49% 2 Traccitto Matteo SM35 00:47:00 4:42 2017
286 49% 2 Ianzano Antonio SM35 00:47:00 4:42 2015
287 49% 1 Pozzi Giorgio PM 00:47:04 4:42 2002
288 49% 3 Corrado Ovidio SM45 00:47:08 4:42 2017
289 49% 1 Gentile Giancarlo SM45 00:47:09 4:42 2012
290 50% 3 Biocco Franco SM50 00:47:13 4:43 2014
291 50% 1 Patrizi Lorenzo SM35 00:47:14 4:43 2017
292 50% 3 Toni Federico SM70 00:47:17 4:43 2017
293 50% 1 Renzi Flavio SM35 00:47:19 4:43 2012
294 50% 1 Del Vecchio Giuseppe SM40 00:47:20 4:44 2012
295 51% 3 Elviretti Francesco SM55 00:47:20 4:44 2014
296 51% 1 Nisini Andrea SM 00:47:21 4:44 2012
297 51% 1 Trivini Emanuele SM40 00:47:24 4:44 2014
298 51% 2 Giani' Corrado SM45 00:47:29 4:44 2017
299 51% 3 Pelonara Gino SM65 00:47:32 4:45 2012
300 51% 1 Grossi Gondi Fabio SM45 00:47:33 4:45 2015
301 52% 1 Pistola Marco SM55 00:47:34 4:45 2015
302 52% 1 Palombini Leopoldo SM45 00:47:34 4:45 2002
303 52% 1 Petrucci Daniele SM40 00:47:35 4:45 2015
304 52% 1 Starnone Marco SM50 00:47:36 4:45 2012
305 52% 1 Carrarini Gianluca SM35 00:47:39 4:45 2012
306 52% 1 Palmieri Stefano SM55 00:47:40 4:46 2017
307 53% 1 Prioreschi Andrea SM40 00:47:42 4:46 2012
308 53% 1 Santolini Roberto SM50 00:47:43 4:46 2017
309 53% 1 Pavia Saverio SM40 00:47:49 4:46 2012
310 53% 1 Marini Sergio SM40 00:47:51 4:47 2015
311 53% 1 Vitello Francesco SM60 00:47:52 4:47 2014
312 53% 4 Cerasa Giuseppe SM65 00:47:52 4:47 2017
313 54% 1 Orlandi Pio SM35 00:47:55 4:47 2012
314 54% 1 Cenerelli Alessio SM 00:47:56 4:47 2015
315 54% 1 Cenerelli Mauro SM35 00:47:56 4:47 2015
316 54% 1 Lionetti Tony SM40 00:47:59 4:47 2014
317 54% 3 Claroni Giulio SM50 00:48:00 4:48 2012
318 54% 1 Ceccarelli Mauro SM45 00:48:03 4:48 2014
319 55% 1 Macchi Giangiacomo SM45 00:48:03 4:48 2012
320 55% 1 Caracci Mario SM 00:48:03 4:48 2015
321 55% 2 Scarnati Carlo SM55 00:48:05 4:48 2014
322 55% 1 Cirilli Pietro SM40 00:48:05 4:48 2002
323 55% 1 Battistelli Stefano SM45 00:48:07 4:48 2017
324 55% 3 Cecchini Paolo SM50 00:48:07 4:48 2015
325 56% 1 Zimmermann Augustin SM40 00:48:11 4:49 2014
326 56% 1 Chiarello Vito SM40 00:48:13 4:49 2017
327 56% 1 Nanni Gregorio SM55 00:48:14 4:49 2014
328 56% 1 Coco Angelo SM60 00:48:17 4:49 2012
329 56% 1 Pellegrini Roberto SM 00:48:17 4:49 2012
330 57% 2 Ciervo Michele SM45 00:48:18 4:49 2012
331 57% 1 Cavarra Marco SM45 00:48:20 4:50 2017
332 57% 2 Sterpa Antonio SM50 00:48:20 4:50 2015
333 57% 1 Gallucci Roberto SM 00:48:26 4:50 2012
334 57% 1 De Cicco Gustavo SM40 00:48:26 4:50 2014
335 57% 2 Zicarelli Marco SM45 00:48:30 4:51 2017
336 58% 1 Ranaldi Alessandro SM 00:48:31 4:51 2002
337 58% 2 Romano Fabio SM40 00:48:34 4:51 2014
338 58% 3 Sarto Gianluca SM45 00:48:35 4:51 2015
339 58% 1 Quagliarella Daniele SM35 00:48:36 4:51 2012
340 58% 1 Tedesco Pietro SM45 00:48:38 4:51 2014
341 58% 1 Micantoni Fabio SM45 00:48:39 4:51 2012
342 59% 1 Salzano Luciano SM55 00:48:41 4:52 2017
343 59% 1 Angelini David SM45 00:48:43 4:52 2015
344 59% 1 Pravato Roberto SM45 00:48:45 4:52 2014
345 59% 3 Santagada Simone SM40 00:48:45 4:52 2017
346 59% 1 Pavone Andrea SM40 00:48:47 4:52 2015
347 59% 3 Ienni Marco SM35 00:48:49 4:52 2015
348 60% 1 Busetta Antonio SM45 00:48:51 4:53 2014
349 60% 1 Aliotta Didier Giuseppe SM50 00:48:52 4:53 2017
350 60% 1 Ponzetto Simone Paolo SM35 00:48:55 4:53 2012
351 60% 4 Iannucci Vittorio SM60 00:48:56 4:53 2015
352 60% 1 Sessa Francesco SM40 00:48:57 4:53 2017
353 60% 1 Sarrocco Fabrizio SM45 00:48:58 4:53 2015
354 61% 1 Mangano Michele SM35 00:48:59 4:53 2015
355 61% 1 Picco Carlo SM55 00:48:59 4:53 2002
356 61% 3 Dell'Abate Romolo SM55 00:48:59 4:53 2015
357 61% 1 De Sanctis Paolo SM35 00:49:00 4:54 2014
358 61% 1 Lobrace Gaetano SM60 00:49:00 4:54 2017
359 61% 2 Battisti Massimo SM70 00:49:02 4:54 2015
360 62% 1 Mattiacci Massimiliano SM40 00:49:04 4:54 2014
361 62% 1 Vella Saverio SM45 00:49:05 4:54 2015
362 62% 1 Russo Bruno SM40 00:49:08 4:54 2015
363 62% 1 Tuazon Silvano Beduya SM55 00:49:08 4:54 2015
364 62% 2 Tolli Fabrizio SM45 00:49:09 4:54 2012
365 62% 2 Clementi Emiliano SM40 00:49:12 4:55 2015
366 63% 3 Passa Maurizio SM45 00:49:13 4:55 2017
367 63% 1 Bonassisa Alfonso SM60 00:49:13 4:55 2017
368 63% 1 Muscio Nicola SM 00:49:14 4:55 2014
369 63% 1 Dusconi Vincenzo Rodolfo SM50 00:49:14 4:55 2012
370 63% 2 Verduchi Marco SM45 00:49:20 4:56 2012
371 64% 1 Fiore Filippo SM55 00:49:21 4:56 2017
372 64% 1 Petrini Rossi Luca SM45 00:49:22 4:56 2012
373 64% 1 Salis Piero SM60 00:49:23 4:56 2014
374 64% 2 Aufieri Marco SM45 00:49:25 4:56 2014
375 64% 3 Tundo Mario Donato Luigi SM55 00:49:28 4:56 2012
376 64% 1 Cozzi Luigi SM45 00:49:29 4:56 2017
377 65% 1 Colapietro Massimiliano SM45 00:49:34 4:57 2017
378 65% 2 Giallongo Emanuele SM55 00:49:34 4:57 2015
379 65% 3 Pretto Carlo SM60 00:49:39 4:57 2012
380 65% 1 Ferraldeschi Alfredo SM45 00:49:40 4:58 2015
381 65% 2 Micheletti Davide SM50 00:49:41 4:58 2014
382 65% 2 Peroni Fabian SM40 00:49:42 4:58 2015
383 66% 1 Guglielmi Gabriele SM40 00:49:45 4:58 2014
384 66% 4 Celli Marco SM45 00:49:48 4:58 2012
385 66% 1 Muzzi Alessandro SM 00:49:48 4:58 2015
386 66% 2 Canale Emilio SM55 00:49:50 4:59 2012
387 66% 1 Miozzi Massimo SM50 00:49:53 4:59 2014
388 66% 1 Fantini Massimiliano SM45 00:49:54 4:59 2012
389 67% 3 Fantozzi Angelo SM55 00:49:54 4:59 2012
390 67% 1 Rognoni Simone SM35 00:49:55 4:59 2017
391 67% 1 Pinducciu Tomaso SM50 00:49:56 4:59 2002
392 67% 1 Parziale Ernesto SM35 00:49:57 4:59 2012
393 67% 4 Lattanzi Andrea SM65 00:49:57 4:59 2012
394 67% 1 Capobianchi Fabio SM 00:49:59 4:59 2014
395 68% 1 Plaitano Marcello SM45 00:50:01 5:00 2012
396 68% 1 Binaghi Stefano SM50 00:50:01 5:00 2015
397 68% 1 Romani Giovanni SM55 00:50:06 5:00 2015
398 68% 2 Florio Carlo SM50 00:50:08 5:00 2014
399 68% 5 Azzone Fabrizio SM45 00:50:15 5:01 2002
400 68% 1 Tozzoli Andrea SM35 00:50:17 5:01 2017
401 69% 1 Di Tanna Giovanni SM50 00:50:21 5:02 2017
402 69% 2 Rinaldi Massimiliano SM45 00:50:28 5:02 2017
403 69% 1 Caporale Giorgio SM35 00:50:30 5:03 2012
404 69% 1 Toscano Ilario Antonio SM55 00:50:32 5:03 2012
405 69% 4 Aureli Mauro SM50 00:50:35 5:03 2017
406 70% 1 Rivetti Luigi SM50 00:50:38 5:03 2012
407 70% 1 Porcelli Michele SM50 00:50:39 5:03 2017
408 70% 2 Lucheroni Fabio SM50 00:50:48 5:04 2015
409 70% 1 Manca Romano SM50 00:50:49 5:04 2012
410 70% 1 Terrasi Gaspare SM55 00:50:51 5:05 2002
411 70% 3 D'alo' Giancarlo SM55 00:50:51 5:05 2012
412 71% 3 Napolitano Giuseppe SM65 00:50:55 5:05 2012
413 71% 1 Frattari Marco SM50 00:50:56 5:05 2014
414 71% 3 Leo Stefano SM50 00:50:56 5:05 2014
415 71% 1 Mandolini Simone SM35 00:51:02 5:06 2012
416 71% 1 Ortolani Paolo SM45 00:51:05 5:06 2017
417 71% 3 Zannoli Marco SM45 00:51:05 5:06 2012
418 72% 1 Di Marzo Fabio SM45 00:51:07 5:06 2017
419 72% 2 Assisi Pietro Fortunato SM60 00:51:07 5:06 2014
420 72% 1 Satta Riccardo SM45 00:51:08 5:06 2002
421 72% 1 Fiorito Natale Roberto SM40 00:51:09 5:06 2012
422 72% 2 Nappi Francesco Paolo SM50 00:51:10 5:07 2012
423 72% 1 Ficoneri Bolasco Filippo Maria SM55 00:51:10 5:07 2017
424 73% 1 La Torre Antonio SM 00:51:11 5:07 2012
425 73% 1 Pinto Antonio SM 00:51:12 5:07 2012
426 73% 1 Golino Federico SM35 00:51:13 5:07 2012
427 73% 1 Cipolla Angelo SM50 00:51:15 5:07 2017
428 73% 3 Romano Giovanni Paolo SM50 00:51:16 5:07 2012
429 73% 2 Marini Gianluca SM40 00:51:18 5:07 2015
430 74% 4 Damore Vincenzo SM50 00:51:19 5:07 2002
431 74% 1 Cintia Attilio SM35 00:51:21 5:08 2012
432 74% 1 Perrotta Michele SM45 00:51:31 5:09 2014
433 74% 1 Marra Pier Tommaso SM35 00:51:32 5:09 2017
434 74% 1 Ilari Stefano SM55 00:51:35 5:09 2012
435 74% 1 Santinami Giorgio SM45 00:51:35 5:09 2014
436 75% 1 Galli Stefano SM50 00:51:40 5:10 2012
437 75% 3 Felici Franco SM60 00:51:41 5:10 2015
438 75% 1 Mancini Adriano SM40 00:51:41 5:10 2015
439 75% 1 La Commara Enzo SM55 00:51:42 5:10 2017
440 75% 3 Di Filippo Pietro SM50 00:51:44 5:10 2015
441 76% 2 Troccia Alessandro SM45 00:51:46 5:10 2014
442 76% 1 Pittelli Roberto SM40 00:51:48 5:10 2012
443 76% 1 Cerrato Luca SM40 00:51:49 5:10 2012
444 76% 3 Usai Leo SM50 00:51:56 5:11 2014
445 76% 1 Pavia Tommaso SM35 00:51:58 5:11 2012
446 76% 2 Fasanella Filippo SM35 00:52:00 5:12 2017
447 77% 1 Cappelli Augusto SM50 00:52:02 5:12 2017
448 77% 1 Brannetti Piero SM50 00:52:05 5:12 2017
449 77% 4 D'Amico Roberto SM60 00:52:06 5:12 2015
450 77% 1 Lorenzini Claudio SM35 00:52:11 5:13 2002
451 77% 1 Ammoscato Riccardo SM50 00:52:16 5:13 2014
452 77% 1 Ofrias Giovanni SM40 00:52:16 5:13 2012
453 78% 1 Promontorio Carlo SM45 00:52:18 5:13 2012
454 78% 3 Veroli Alessandro SM40 00:52:20 5:14 2017
455 78% 1 Giacchi Roberto SM45 00:52:21 5:14 2014
456 78% 1 Nieves Luis Felipe SM40 00:52:21 5:14 2012
457 78% 2 Contini Claudio SM45 00:52:24 5:14 2014
458 78% 1 Morici Alberto SM55 00:52:26 5:14 2012
459 79% 1 Paolino Giuseppe SM45 00:52:26 5:14 2017
460 79% 4 Ricci Paolo SM50 00:52:27 5:14 2015
461 79% 3 Castaldi Giovanni SM65 00:52:31 5:15 2012
462 79% 1 Circhetta Carlo SM50 00:52:32 5:15 2014
463 79% 2 Fiorini Mauro SM55 00:52:40 5:16 2012
464 79% 1 Marinelli Roberto SM50 00:52:43 5:16 2015
465 80% 1 Cerilli Carlo SM40 00:52:50 5:17 2015
466 80% 1 Pistelli Lapo SM50 00:52:59 5:17 2017
467 80% 1 Palazzina Sergio SM50 00:52:59 5:17 2017
468 80% 2 Barrella Giuseppe SM55 00:53:07 5:18 2012
469 80% 1 Montefusco Riccardo SM45 00:53:08 5:18 2015
470 80% 1 Borghese Massimiliano SM50 00:53:17 5:19 2014
471 81% 1 Altissimi Fabio SM35 00:53:23 5:20 2014
472 81% 4 Angelini Fabrizio SM60 00:53:25 5:20 2012
473 81% 2 Magnano Francesco SM45 00:53:25 5:20 2012
474 81% 2 Carlotto Giorgio SM60 00:53:26 5:20 2015
475 81% 2 Asquino Michele SM45 00:53:38 5:21 2014
476 82% 1 Valentini Ercole SM55 00:53:42 5:22 2012
477 82% 2 Giachetti Roberto SM50 00:53:46 5:22 2012
478 82% 2 D'eramo Marco SM45 00:53:46 5:22 2014
479 82% 1 Torano Pasquale SM45 00:53:47 5:22 2014
480 82% 1 Borgia Pier Francesco SM50 00:53:50 5:23 2014
481 82% 1 Lazzari Romano SM65 00:53:51 5:23 2002
482 83% 1 Bearzot Massimiliano SM40 00:53:54 5:23 2014
483 83% 4 Della Valle Andrea SM55 00:53:57 5:23 2012
484 83% 1 Carrese Stefano SM50 00:54:08 5:24 2012
485 83% 1 Porta Andrea SM45 00:54:08 5:24 2012
486 83% 1 Culini Massimo SM45 00:54:17 5:25 2012
487 83% 1 Bissattini Stefano SM60 00:54:23 5:26 2017
488 84% 1 D'andria Marcello SM40 00:54:26 5:26 2014
489 84% 1 Potesta' Paolo SM45 00:54:36 5:27 2015
490 84% 1 Pazielli Andrea SM65 00:54:37 5:27 2017
491 84% 2 Tomassetti Luca SM45 00:54:40 5:28 2015
492 84% 1 Gaglione Roberto SM50 00:54:40 5:28 2014
493 84% 1 Ferrari Franco SM55 00:54:41 5:28 2014
494 85% 1 Ruvolo Maurizio SM45 00:54:47 5:28 2015
495 85% 1 D'amelio Gianluca SM40 00:54:47 5:28 2012
496 85% 1 Rubeis Luciano SM50 00:54:50 5:29 2015
497 85% 1 Di Giuseppe Roberto SM60 00:54:56 5:29 2012
498 85% 1 Cardarelli Mauro SM40 00:55:05 5:30 2012
499 85% 1 Bruschini Renato SM35 00:55:05 5:30 2017
500 86% 1 Di Francesco Antonio SM35 00:55:07 5:30 2014
501 86% 2 Baccante Roberto SM35 00:55:07 5:30 2002
502 86% 1 Turella Maurizio SM45 00:55:10 5:31 2017
503 86% 1 De Donno Giuseppe SM45 00:55:14 5:31 2015
504 86% 1 Carletti Silvano SM60 00:55:17 5:31 2012
505 86% 1 Benvenuto Leonardo SM50 00:55:27 5:32 2015
506 87% 1 Natali Giuseppe SM45 00:55:29 5:32 2014
507 87% 1 Frate Cristian SM 00:55:30 5:33 2012
508 87% 1 Carrieri Massimo SM45 00:55:40 5:34 2012
509 87% 1 D'alo' Giuseppe SM35 00:55:42 5:34 2012
510 87% 1 Squillace Greco Ettore SM45 00:55:42 5:34 2012
511 88% 1 Baffi Giuseppe SM45 00:55:44 5:34 2017
512 88% 1 Tombolesi Roberto SM45 00:55:45 5:34 2014
513 88% 2 Sangiovanni Vincent. Alberto Luigi SM65 00:55:48 5:34 2012
514 88% 2 Fedele Paolo SM55 00:56:01 5:36 2012
515 88% 1 Giammusso Gabriele SM 00:56:01 5:36 2015
516 88% 1 Aterno Andrea SM45 00:56:01 5:36 2017
517 89% 1 Palmieri Marco SM50 00:56:01 5:36 2015
518 89% 1 Migliaccio Massimo SM45 00:56:23 5:38 2002
519 89% 1 D'angelo Riccardo SM45 00:56:36 5:39 2014
520 89% 1 Priggione Matte' Luca SM40 00:56:48 5:40 2017
521 89% 1 Alciator Marco SM35 00:56:52 5:41 2012
522 89% 3 Ottavi Mario SM60 00:57:01 5:42 2012
523 90% 1 Marra Pasquale SM35 00:57:08 5:42 2012
524 90% 2 Neri Marco SM50 00:57:12 5:43 2012
525 90% 1 Duca Massimiliano SM45 00:57:16 5:43 2017
526 90% 1 Betro' Maurizio SM45 00:57:18 5:43 2014
527 90% 1 Bartolini Paolo SM45 00:57:18 5:43 2017
528 90% 1 Scuto Giuseppe SM40 00:57:26 5:44 2017
529 91% 1 Chiusolo Roberto SM40 00:57:27 5:44 2017
530 91% 1 Lamicela Giuseppe SM45 00:57:31 5:45 2012
531 91% 1 Presutti Fabio SM35 00:57:35 5:45 2014
532 91% 1 Di Iorio Michele Matteo SM60 00:57:40 5:46 2012
533 91% 1 Meacci Marco SM45 00:57:43 5:46 2014
534 91% 1 Brilli Maurizio SM60 00:57:46 5:46 2014
535 92% 1 Micieli Sebastiano SM35 00:57:49 5:46 2014
536 92% 1 Cacciami Massimo SM50 00:57:53 5:47 2012
537 92% 1 Internullo Mattia SM 00:57:55 5:47 2017
538 92% 1 Macci Daniele SM40 00:57:59 5:47 2015
539 92% 1 Pinori Giovanni SM55 00:57:59 5:47 2017
540 92% 1 Serafini Francesco SM55 00:58:11 5:49 2015
541 93% 1 Caggiati Luca SM45 00:58:13 5:49 2012
542 93% 1 Mauro Gaetano SM40 00:58:14 5:49 2015
543 93% 1 Mini Stefano SM45 00:58:20 5:50 2014
544 93% 1 Cascetti Franco SM65 00:58:25 5:50 2012
545 93% 1 Camilli Bernardino SM60 00:58:44 5:52 2012
546 93% 1 Succu Giuseppe SM80 00:58:49 5:52 2014
547 94% 4 Kamaris Costantino SM60 00:59:22 5:56 2012
548 94% 1 Toraldo Stefano SM35 00:59:26 5:56 2012
549 94% 1 Addari Christian SM40 00:59:27 5:56 2014
550 94% 1 Della Torre Mario SM45 00:59:31 5:57 2014
551 94% 1 Speciale Massimiliano SM40 00:59:44 5:58 2017
552 95% 1 Sorrone Massimo SM50 00:59:45 5:58 2012
553 95% 2 Piccioni Roberto SM60 00:59:46 5:58 2012
554 95% 2 Mariano Angelo SM60 00:59:48 5:58 2015
555 95% 2 Strabbioli Marco SM45 00:59:58 5:59 2014
556 95% 1 De Bonis Andrea SM35 01:00:02 6:00 2012
557 95% 1 Marano Pietro SM55 01:00:22 6:02 2002
558 96% 1 Malatesta Luca SM40 01:00:32 6:03 2015
559 96% 1 Meniconi Massimo SM50 01:00:44 6:04 2012
560 96% 1 Nido Domenico SM70 01:01:01 6:06 2012
561 96% 1 Zancolla Andrea SM40 01:01:07 6:06 2017
562 96% 1 Arcudi Claudio SM35 01:01:24 6:08 2014
563 96% 2 Mereu Mauro SM60 01:02:01 6:12 2014
564 97% 1 Terrone Donato SM50 01:02:39 6:15 2014
565 97% 1 Cacciani Pietro SM45 01:03:00 6:18 2012
566 97% 1 Carfagna Sandro SM60 01:03:40 6:22 2014
567 97% 1 Roscetti Sandro SM65 01:03:42 6:22 2012
568 97% 1 Federici Sandro SM60 01:04:11 6:25 2017
569 97% 2 Lamberti Giorgio SM70 01:04:16 6:25 2015
570 98% 1 Caria Massimo SM45 01:04:25 6:26 2017
571 98% 1 Baccante Domenico SM70 01:04:51 6:29 2002
572 98% 1 Nistico' Rosario SM50 01:04:54 6:29 2014
573 98% 1 Sigismondi Roberto SM35 01:05:12 6:31 2014
574 98% 2 Lambelet Aldo SM70 01:05:27 6:32 2015
575 98% 1 Stefanini Mario SM70 01:05:50 6:35 2012
576 99% 2 Di Gregorio Domenico SM65 01:06:59 6:41 2014
577 99% 1 Mercanti Francesco SM45 01:07:00 6:42 2014
578 99% 3 Bernieri Gianfranco SM80 01:08:00 6:48 2015
579 99% 1 Cibrario Michele Nicolo' SM 01:08:25 6:50 2014
580 99% 1 Mieli Settimio SM35 01:09:01 6:54 2012
581 99% 1 Fantucci Fabio SM45 01:11:57 7:11 2015
582 100% 1 De Bonis Leandro SM65 01:12:19 7:13 2014
583 100% 1 Piretti Stefano SM55 01:16:13 7:37 2012
584 100% 1 Briganti Maurizio SM70 01:22:17 8:13 2014

Ver: 3.17 | cecadm